#timestamp,LO_Frequency,Hit,StdDev 
1504292415.6,286047002.1,N,1.5
1504292435.4,286047002.0,N,1.5
1504292455.3,286047001.6,N,1.4
1504292475.1,286047001.5,N,1.4
1504292495.9,286047001.7,N,1.4
1504292515.7,286047001.3,N,1.4
1504292535.5,286047001.7,N,1.3
1504292555.4,286047001.4,N,1.3
1504292575.2,286047004.1,Y,0.0
1504292595.0,286047001.6,P,0.3
1504292596.0,286047001.6,P,0.3
1504292615.8,286047004.0,P,1.2
1504292635.6,286047001.5,N,1.1
1504292655.5,286047001.3,N,1.0
1504292675.3,286047004.2,Y,0.0
1504292695.2,286047002.7,P,0.4
1504292715.9,286047002.3,P,0.4
1504292735.7,286047001.9,P,0.3
1504292755.6,286047002.1,Y,0.0
1504292775.4,286046998.2,P,2.0
1504292795.3,286047001.1,N,1.7
1504292815.1,286047000.9,N,1.5
1504292816.0,286047000.9,N,1.3
1504292835.8,286047000.5,N,1.2
1504292855.7,286047000.7,N,1.1
1504292875.5,286047001.0,N,1.0
1504292895.3,286047000.0,N,1.0
1504292915.2,286047011.9,Y,0.0
1504292935.0,286047001.1,P,0.2
1504292935.9,286047001.1,P,0.2
1504292955.8,286047000.3,N,0.3
1504292975.6,286046998.6,Y,0.0
1504292995.5,286046999.3,P,0.7
1504293015.3,286046998.4,N,1.0
1504293035.1,286046998.5,N,1.0
1504293055.9,286047001.1,N,1.1
1504293075.7,286047000.8,N,1.1
1504293095.5,286047000.4,N,1.1
1504293115.4,286047001.0,N,1.1
1504293135.2,286047002.3,N,1.2
1504293155.1,286047001.0,N,1.2
1504293156.0,286047001.0,N,1.1
1504293175.8,286047000.7,N,1.1
1504293195.6,286047001.0,N,1.1
1504293215.5,286047000.6,N,1.0
1504293235.3,286047001.2,N,1.0
1504293255.2,286047001.2,N,1.0
1504293275.9,286047000.9,N,1.0
1504293295.7,286046998.2,N,1.1
1504293315.6,286047000.3,N,1.1
1504293335.4,286047001.1,N,1.0
1504293355.3,286046998.2,N,1.1
1504293375.1,286682705.9,Y,0.0
1504293376.0,286047000.4,P,0.0
1504293395.8,286047001.2,P,0.4
1504293415.7,286047000.8,N,0.3
1504293435.5,286046998.2,Y,0.0
1504293455.4,286046999.5,P,0.6
1504293475.2,286046998.1,P,1.1
1504293495.0,286047001.2,N,1.2
1504293495.9,286047001.2,N,1.2
1504293515.8,286046998.5,N,1.2
1504293535.6,286046998.3,N,1.3
1504293555.5,286047001.1,N,1.3
1504293575.3,286047000.3,N,1.2
1504293595.1,286047000.3,N,1.2
1504293615.9,286047000.0,N,1.1
1504293635.7,286047002.6,N,1.3
1504293655.6,286047002.2,N,1.4
1504293675.4,286047000.2,N,1.3
1504293695.2,286046999.8,N,1.3
1504293715.1,286046999.8,N,1.2
1504293716.0,286046999.8,N,1.2
1504293735.8,286046999.9,N,1.2
1504293755.7,286047002.6,N,1.3
1504293775.5,286047000.1,N,1.2
1504293795.3,286047002.8,N,1.3
1504293815.2,286047000.2,N,1.3
1504293835.0,286047000.1,N,1.3
1504293835.9,286047000.1,N,1.2
1504293855.8,286046999.9,N,1.2
1504293875.6,286047000.2,N,1.2
1504293895.4,286047000.2,N,1.2
1504293915.3,286047000.2,N,1.1
1504293935.1,286046999.9,N,1.1
1504293955.8,286047002.4,N,1.2
1504293975.7,286047001.5,N,1.2
1504293995.5,286047000.0,N,1.2
1504294015.4,286047000.0,N,1.1
1504294035.2,286047000.8,N,1.1
1504294055.0,286046999.9,N,1.1
1504294055.9,286046999.9,N,1.0
1504294075.8,286047001.6,N,1.0
1504294095.6,286047002.4,N,1.0
1504294115.5,286047002.1,N,1.0
1504294135.3,286047002.7,N,1.1
1504294155.1,286047001.9,N,1.1
1504294175.9,286047001.9,N,1.1
1504294195.7,286047001.8,N,1.1
1504294215.6,286043162.1,Y,0.0
1504294235.4,286046999.7,P,0.6
1504294255.2,286047000.4,N,0.5
1504294275.1,286046998.6,P,0.8
1504294276.0,286046998.6,N,0.9
1504294295.8,286046999.9,N,0.8
1504294315.6,286047000.5,N,0.8
1504294335.5,286047002.3,N,1.1
1504294355.3,286047002.7,N,1.3
1504294375.2,286047001.6,N,1.3
1504294395.9,286047002.0,N,1.3
1504294415.7,286046999.9,N,1.3
1504294435.6,286047002.2,N,1.3
1504294455.4,286047000.1,N,1.3
1504294475.3,286047003.9,Y,0.0
1504294495.1,286046999.7,P,0.5
1504294496.0,286046999.7,N,0.5
1504294515.8,286046999.7,N,0.4
1504294535.7,286047001.9,Y,0.0
1504294555.5,286047000.2,P,0.1
1504294575.3,286047001.0,P,0.5
1504294595.2,286047000.6,N,0.4
1504294615.0,286047002.7,Y,0.0
1504294615.9,286047002.7,P,1.1
1504294635.8,286047000.3,N,1.1
1504294655.6,286047002.6,N,1.1
1504294675.4,286047000.4,N,1.1
1504294695.3,286046998.6,N,1.4
1504294715.1,286046998.7,N,1.5
1504294735.9,286047000.8,N,1.4
1504294755.7,286047000.4,N,1.3
1504294775.5,286047000.5,N,1.3
1504294795.4,286047000.0,N,1.2
1504294815.2,286047000.5,N,1.2
1504294835.1,286046998.2,N,1.3
1504294836.0,286046998.2,N,1.4
1504294855.8,286046998.5,N,1.4
1504294875.6,286046998.2,N,1.4
1504294895.5,286047000.8,N,1.4
1504294915.3,286046998.6,N,1.4
1504294935.2,286046998.6,N,1.4
1504294955.9,286046998.2,N,1.4
1504294975.7,286046999.8,N,1.3
1504294995.6,286047001.5,N,1.4
1504295015.4,286047002.8,N,1.5
1504295035.2,286047002.5,N,1.5
1504295055.1,286047002.4,N,1.6
1504295056.0,286047002.4,N,1.6
1504295075.8,286047001.7,N,1.6
1504295095.7,286047003.9,N,1.7
1504295115.5,286047001.9,N,1.7
1504295135.3,286047001.9,N,1.7
1504295155.2,286047001.6,N,1.7
1504295175.0,286046999.7,N,1.6
1504295175.9,286046999.7,N,1.6
1504295195.8,286046999.8,N,1.6
1504295215.6,286046999.7,N,1.6
1504295235.4,286047002.8,N,1.6
1504295255.3,286047002.7,N,1.6
1504295275.1,286047002.7,N,1.7
1504295295.8,286047002.3,N,1.7
1504295315.7,286047000.1,N,1.7
1504295335.5,286047000.1,N,1.7
1504295355.4,286047001.0,N,1.7
1504295375.2,286047000.0,N,1.7
1504295395.0,286047002.7,N,1.6
1504295396.0,286047002.7,N,1.6
1504295415.8,286682708.3,Y,0.0
1504295435.6,286047000.7,P,0.2
1504295455.5,286046998.6,P,1.1
1504295475.3,286046998.8,N,1.1
1504295495.1,286046999.0,N,1.0
1504295515.9,286046998.3,N,1.1
1504295535.7,286046999.4,N,1.0
1504295555.6,286046998.4,N,1.0
1504295575.4,286047000.7,N,1.0
1504295595.2,286047001.0,N,1.1
1504295615.1,286047001.1,N,1.1
1504295616.0,286047001.1,N,1.1
1504295635.8,286047001.1,N,1.1
1504295655.7,286047000.3,N,1.1
1504295675.5,286047001.0,N,1.1
1504295695.3,286047002.5,N,1.2
1504295715.2,286047000.2,N,1.2
1504295735.0,286047000.0,N,1.1
1504295735.9,286047000.0,N,1.1
1504295755.8,286047002.3,N,1.2
1504295775.6,286047000.3,N,1.2
1504295795.4,286047000.4,N,1.1
1504295815.3,286047000.5,N,1.1
1504295835.1,286047002.7,N,1.2
1504295855.8,286047003.9,Y,0.0
1504295875.7,286047000.2,P,0.1
1504295895.5,286047000.4,P,0.1
1504295915.4,286047000.7,P,0.2
1504295935.2,286047000.7,Y,0.0
1504295955.0,286047000.7,P,0.1
1504295955.9,286047000.7,P,0.1
1504295975.8,286047000.5,P,0.1
1504295995.6,286046999.8,N,0.3
